• In Latvia
  • List of Countries
  • For 7 days
  • Water Temperature
  • Satellite Maps
  • Weather Map
  • Weather Widgets
  • user-avatar
    Login

    Hourly Weather Porto Velho

    Today, 12 December, Tuesday

    Time Temperature Precipitation Wind Pressure Humidity
    00:00 +24°C° 0 mm 1 mps 749 mmHg 99%
    01:00 +24°C° 0 mm 1 mps 749 mmHg 99%
    02:00 +24°C° 0 mm 1 mps 749 mmHg 99%
    03:00 +24°C° 0 mm 1 mps 749 mmHg 99%
    04:00 +24°C° 0 mm 1 mps 749 mmHg 99%
    05:00 +24°C° 0 mm 1 mps 749 mmHg 99%
    06:00 +25°C° 0 mm 1 mps 749 mmHg 96%
    07:00 +25°C° 0 mm 1 mps 750 mmHg 94%
    08:00 +26°C° 0 mm 1 mps 750 mmHg 91%
    09:00 +29°C° 0.2 mm 1 mps 750 mmHg 80%
    10:00 +31°C° 0.2 mm 1 mps 750 mmHg 70%
    11:00 +33°C° 0.2 mm 1 mps 749 mmHg 59%
    12:00 +34°C° 0.6 mm 1 mps 749 mmHg 58%
    13:00 +34°C° 0.6 mm 1 mps 748 mmHg 58%
    14:00 +32°C° 0.6 mm 0 mps 747 mmHg 58%
    15:00 +33°C° 0.8 mm 1 mps 747 mmHg 65%
    16:00 +31°C° 0.8 mm 1 mps 747 mmHg 73%
    17:00 +30°C° 0.8 mm 1 mps 746 mmHg 80%
    18:00 +29°C° 0.8 mm 1 mps 747 mmHg 86%
    19:00 +27°C° 0.8 mm 1 mps 747 mmHg 91%
    20:00 +26°C° 0.8 mm 1 mps 748 mmHg 96%
    21:00 +26°C° 0.2 mm 1 mps 748 mmHg 96%
    22:00 +24°C° 0.2 mm 0 mps 749 mmHg 96%
    23:00 +24°C° 0.2 mm 0 mps 749 mmHg 96%

    Tomorrow, 13 December, Wednesday

    Time Temperature Precipitation Wind Pressure Humidity
    00:00 +23°C° 0.4 mm 0 mps 749 mmHg 96%
    01:00 +23°C° 0.4 mm 0 mps 748 mmHg 97%
    02:00 +23°C° 0.4 mm 0 mps 748 mmHg 97%
    03:00 +23°C° 1.1 mm 0 mps 748 mmHg 97%
    04:00 +23°C° 1.1 mm 0 mps 748 mmHg 98%
    05:00 +23°C° 1.1 mm 0 mps 749 mmHg 98%
    06:00 +23°C° 1.5 mm 0 mps 749 mmHg 98%
    07:00 +26°C° 1.5 mm 1 mps 750 mmHg 97%
    08:00 +26°C° 1.5 mm 1 mps 751 mmHg 96%
    09:00 +27°C° 1 mm 1 mps 751 mmHg 95%
    10:00 +27°C° 1 mm 1 mps 751 mmHg 94%
    11:00 +28°C° 1 mm 1 mps 751 mmHg 93%
    12:00 +29°C° 1.3 mm 1 mps 750 mmHg 89%
    13:00 +29°C° 1.3 mm 1 mps 750 mmHg 85%
    14:00 +30°C° 1.3 mm 1 mps 749 mmHg 81%
    15:00 +30°C° 1.7 mm 1 mps 749 mmHg 84%
    16:00 +29°C° 1.7 mm 1 mps 749 mmHg 88%
    17:00 +27°C° 1.7 mm 0 mps 748 mmHg 91%
    18:00 +26°C° 1.5 mm 0 mps 749 mmHg 92%
    19:00 +25°C° 1.5 mm 0 mps 749 mmHg 94%
    20:00 +24°C° 1.5 mm 0 mps 749 mmHg 96%
    21:00 +24°C° 0 mm 0 mps 750 mmHg 96%
    22:00 +24°C° 0 mm 0 mps 750 mmHg 96%
    23:00 +24°C° 0 mm 0 mps 750 mmHg 96%

    Day after tomorrow, 14 December, Thursday

    Time Temperature Precipitation Wind Pressure Humidity
    00:00 +23°C° 0.2 mm 0 mps 750 mmHg 96%
    01:00 +23°C° 0.2 mm 0 mps 749 mmHg 96%
    02:00 +23°C° 0.2 mm 0 mps 749 mmHg 97%
    03:00 +23°C° 0.3 mm 0 mps 749 mmHg 97%
    04:00 +23°C° 0.3 mm 0 mps 749 mmHg 97%
    05:00 +23°C° 0.3 mm 0 mps 750 mmHg 98%
    06:00 +23°C° 0.8 mm 0 mps 750 mmHg 98%
    07:00 +23°C° 0.8 mm 0 mps 751 mmHg 98%
    08:00 +23°C° 0.8 mm 0 mps 752 mmHg 98%
    09:00 +26°C° 1.2 mm 1 mps 752 mmHg 97%
    10:00 +26°C° 1.2 mm 1 mps 752 mmHg 97%
    11:00 +26°C° 1.2 mm 1 mps 752 mmHg 96%
    12:00 +28°C° 0.1 mm 1 mps 751 mmHg 86%
    13:00 +30°C° 0.1 mm 1 mps 750 mmHg 77%
    14:00 +31°C° 0.1 mm 1 mps 749 mmHg 67%
    15:00 +30°C° 0.1 mm 1 mps 749 mmHg 72%
    16:00 +29°C° 0.1 mm 1 mps 748 mmHg 77%
    17:00 +26°C° 0.1 mm 0 mps 748 mmHg 82%
    18:00 +25°C° 0.3 mm 0 mps 748 mmHg 86%
    19:00 +25°C° 0.3 mm 0 mps 749 mmHg 89%
    20:00 +24°C° 0.3 mm 0 mps 749 mmHg 92%
    21:00 +24°C° 0.2 mm 0 mps 750 mmHg 93%
    22:00 +23°C° 0.2 mm 0 mps 750 mmHg 93%
    23:00 +23°C° 0.2 mm 0 mps 750 mmHg 94%

    15 December, Friday

    Time Temperature Precipitation Wind Pressure Humidity
    00:00 +23°C° 0.2 mm 0 mps 750 mmHg 94%
    01:00 +23°C° 0.2 mm 0 mps 750 mmHg 95%
    02:00 +23°C° 0.2 mm 0 mps 749 mmHg 95%
    03:00 +23°C° 0.6 mm 0 mps 750 mmHg 96%
    04:00 +23°C° 0.6 mm 0 mps 750 mmHg 96%
    05:00 +23°C° 0.6 mm 0 mps 750 mmHg 97%
    06:00 +23°C° 0.6 mm 0 mps 750 mmHg 96%
    07:00 +23°C° 0.6 mm 0 mps 751 mmHg 95%
    08:00 +24°C° 0.6 mm 0 mps 752 mmHg 95%
    09:00 +26°C° 0.5 mm 1 mps 752 mmHg 93%
    10:00 +27°C° 0.5 mm 1 mps 752 mmHg 92%
    11:00 +28°C° 0.5 mm 1 mps 752 mmHg 91%
    12:00 +29°C° 1.2 mm 1 mps 751 mmHg 88%
    13:00 +29°C° 1.2 mm 1 mps 750 mmHg 85%
    14:00 +28°C° 1.2 mm 0 mps 749 mmHg 82%
    15:00 +30°C° 0.4 mm 1 mps 748 mmHg 78%
    16:00 +31°C° 0.4 mm 1 mps 748 mmHg 74%
    17:00 +31°C° 0.4 mm 1 mps 747 mmHg 70%
    18:00 +30°C° 0.2 mm 1 mps 748 mmHg 77%
    19:00 +28°C° 0.2 mm 1 mps 748 mmHg 83%
    20:00 +25°C° 0.2 mm 0 mps 749 mmHg 90%
    21:00 +24°C° 0 mm 0 mps 749 mmHg 91%
    22:00 +24°C° 0 mm 0 mps 749 mmHg 92%
    23:00 +23°C° 0 mm 0 mps 749 mmHg 93%

    16 December, Saturday

    Time Temperature Precipitation Wind Pressure Humidity
    00:00 +23°C° 0 mm 0 mps 749 mmHg 94%
    01:00 +23°C° 0 mm 0 mps 749 mmHg 94%
    02:00 +23°C° 0 mm 0 mps 748 mmHg 94%
    03:00 +23°C° 0 mm 0 mps 748 mmHg 94%
    04:00 +22°C° 0 mm 0 mps 748 mmHg 94%
    05:00 +22°C° 0 mm 0 mps 749 mmHg 94%
    06:00 +23°C° 0 mm 0 mps 749 mmHg 91%
    07:00 +24°C° 0 mm 0 mps 750 mmHg 88%
    08:00 +25°C° 0 mm 0 mps 750 mmHg 84%
    09:00 +29°C° 0.5 mm 1 mps 750 mmHg 79%
    10:00 +30°C° 0.5 mm 1 mps 750 mmHg 74%
    11:00 +32°C° 0.5 mm 1 mps 750 mmHg 68%
    12:00 +32°C° 1.6 mm 1 mps 749 mmHg 72%
    13:00 +32°C° 1.6 mm 1 mps 748 mmHg 76%
    14:00 +31°C° 1.6 mm 1 mps 747 mmHg 80%
    15:00 +31°C° 0.9 mm 1 mps 747 mmHg 82%
    16:00 +31°C° 0.9 mm 1 mps 747 mmHg 84%
    17:00 +30°C° 0.9 mm 1 mps 746 mmHg 86%
    18:00 +29°C° 0.4 mm 1 mps 747 mmHg 89%
    19:00 +28°C° 0.4 mm 1 mps 747 mmHg 93%
    20:00 +26°C° 0.4 mm 1 mps 748 mmHg 97%
    21:00 +26°C° 0 mm 1 mps 748 mmHg 97%
    22:00 +26°C° 0 mm 1 mps 748 mmHg 97%
    23:00 +26°C° 0 mm 1 mps 749 mmHg 97%

    17 December, Sunday

    Time Temperature Precipitation Wind Pressure Humidity
    00:00 +25°C° 0 mm 1 mps 748 mmHg 97%
    01:00 +25°C° 0 mm 1 mps 748 mmHg 98%
    02:00 +25°C° 0 mm 1 mps 748 mmHg 98%
    03:00 +25°C° 0 mm 1 mps 748 mmHg 98%
    04:00 +25°C° 0 mm 1 mps 748 mmHg 98%
    05:00 +25°C° 0 mm 1 mps 748 mmHg 98%
    06:00 +26°C° 0 mm 1 mps 749 mmHg 96%
    07:00 +26°C° 0 mm 1 mps 750 mmHg 94%
    08:00 +27°C° 0 mm 1 mps 750 mmHg 92%
    09:00 +29°C° 0 mm 1 mps 750 mmHg 80%
    10:00 +31°C° 0 mm 2 mps 750 mmHg 68%
    11:00 +34°C° 0 mm 2 mps 750 mmHg 57%
    12:00 +35°C° 0 mm 2 mps 749 mmHg 53%
    13:00 +36°C° 0 mm 2 mps 749 mmHg 50%
    14:00 +37°C° 0 mm 2 mps 748 mmHg 46%
    15:00 +36°C° 0 mm 2 mps 747 mmHg 49%
    16:00 +35°C° 0 mm 1 mps 747 mmHg 53%
    17:00 +34°C° 0 mm 1 mps 747 mmHg 56%
    18:00 +32°C° 0 mm 1 mps 747 mmHg 63%
    19:00 +31°C° 0 mm 1 mps 747 mmHg 69%
    20:00 +29°C° 0 mm 1 mps 748 mmHg 76%
    21:00 +26°C° 0 mm 0 mps 748 mmHg 78%
    22:00 +26°C° 0 mm 0 mps 749 mmHg 80%
    23:00 +25°C° 0 mm 0 mps 749 mmHg 82%
    Show more